Wind_Speed
6 6 6 5 6 6 6 6 6 6 7 6 6 6 6 6 6 5 5 4 4 4 4 4 4 4 4 4 4 2 2 3 3 3 3 3 4 4 4 3 4 5 4
6 6 6 5 5 6 6 7 7 6 6 6 6 5 5 4 4 4 5 5 5 4 4 4 4 3 3 3 3 2 2 3 3 3 3 3 3 4 4 4 4 5 4
6 5 5 5 5 5 6 6 6 6 6 6 5 5 5 4 4 4 5 5 4 4 4 4 4 3 3 4 3 3 2 2 2 3 3 3 3 3 4 4 5 5 4
6 6 5 5 5 5 5 5 5 5 5 5 5 5 4 4 4 4 5 4 4 3 3 3 3 3 4 4 3 2 2 3 3 3 3 4 3 3 4 5 5 4 4
6 6 6 5 5 5 5 5 4 4 4 4 4 3 3 3 3 3 3 4 4 3 3 3 3 3 4 3 3 3 2 3 3 2 3 3 3 3 4 5 5 5 5
6 6 6 5 5 5 5 5 4 4 3 3 3 2 2 3 3 3 3 3 3 3 3 3 3 3 3 3 3 3 2 2 2 3 2 2 2 2 4 4 5 5 6
6 6 6 6 6 6 5 5 4 4 3 3 3 2 2 2 3 3 3 3 3 3 3 4 4 4 4 4 4 3 3 2 1 1 1 2 2 2 3 4 5 5 6
8 8 8 8 7 6 5 5 4 4 4 3 3 3 3 2 2 2 2 3 3 3 3 4 4 4 4 4 4 4 3 2 1 1 1 2 2 2 2 3 4 5 5
9 9 9 9 8 7 6 5 4 4 4 3 3 3 3 2 2 2 2 2 3 3 3 3 4 4 4 4 4 4 3 2 1 1 1 1 2 2 3 3 4 5 5
10 10 10 10 9 8 7 6 5 5 4 4 3 3 2 2 2 2 1 1 2 3 3 3 3 4 4 4 3 2 2 2 2 1 1 2 2 2 3 3 4 5 5
11 11 11 10 9 8 7 6 6 5 5 5 5 4 3 2 2 1 1 1 1 3 3 3 4 4 4 4 3 3 3 3 3 3 2 1 2 2 2 3 4 5 5
11 11 10 10 10 9 9 8 8 8 7 7 6 5 4 3 2 1 1 1 1 1 2 3 3 4 4 4 3 3 3 3 3 3 2 2 2 2 3 3 3 4 5
11 10 10 10 10 10 10 10 9 8 8 7 7 6 5 4 3 2 2 1 1 1 1 2 3 4 4 4 4 4 4 3 3 3 3 3 3 3 3 3 4 4 4
11 11 10 10 10 9 9 9 8 7 7 7 7 6 5 5 4 3 2 2 2 2 1 2 3 4 4 5 5 4 3 4 3 3 3 4 4 4 4 4 4 5 5
11 11 10 10 10 9 9 8 7 6 6 6 5 5 5 5 5 4 2 2 1 1 1 2 2 3 3 4 4 4 4 4 4 4 3 3 4 5 5 5 5 5 5
12 12 12 11 11 10 9 8 7 7 6 6 5 4 4 4 4 4 3 2 1 0 0 2 2 3 3 4 4 5 4 4 4 5 5 5 5 5 5 6 5 5 6
12 12 12 12 11 11 10 9 7 6 5 5 4 4 4 4 3 3 3 2 1 1 1 2 2 2 3 4 4 5 5 5 5 6 5 6 6 5 6 7 6 6 6
11 11 11 11 11 10 10 9 8 7 6 5 5 4 4 4 3 3 3 2 1 1 1 2 2 2 3 3 4 4 5 5 6 6 6 7 6 6 7 7 7 6 6
10 10 10 10 9 10 9 9 8 8 7 6 5 4 4 4 4 3 3 2 1 1 1 2 2 3 2 3 4 5 5 5 5 6 6 6 7 7 7 7 7 7 7
10 10 9 9 9 9 10 9 9 9 8 7 5 5 5 4 4 4 3 3 2 1 2 2 2 2 3 4 5 5 5 6 6 6 6 7 7 7 7 6 7 7 8
11 11 10 10 9 9 10 9 9 9 9 8 7 6 5 5 4 4 4 4 3 3 3 2 2 3 4 5 5 6 6 7 8 8 7 7 7 7 7 7 7 8 9
11 11 11 11 10 9 9 9 9 9 9 8 7 7 6 6 5 5 5 5 5 4 3 3 3 4 4 5 5 6 7 8 8 8 8 8 8 9 9 9 9 9 10
10 10 10 10 10 10 10 9 9 9 9 9 8 8 8 7 6 6 5 6 4 4 5 4 4 5 5 5 6 8 8 8 9 9 10 9 10 10 11 10 11 11 11
9 10 10 10 9 10 10 9 9 8 8 8 8 8 9 8 8 7 6 6 6 5 5 5 5 6 6 6 7 8 9 9 9 9 9 10 10 10 10 11 11 12 12
9 10 10 9 9 10 10 10 9 9 9 9 9 8 9 9 8 8 7 7 7 6 6 6 6 6 6 7 8 9 10 10 10 9 9 10 11 11 12 12 12 12 12
8 9 9 10 9 9 10 10 9 9 10 10 10 9 10 10 10 9 8 8 7 7 7 7 8 8 8 9 10 11 11 12 12 11 11 11 12 12 13 13 13 13 12
Wind_Direction
70 65 73 78 85 92 90 93 97 106 111 112 111 113 119 122 126 129 131 130 132 130 128 129 136 142 149 154 156 143 141 161 185 198 198 202 208 202 201 212 215 211 220
63 61 70 82 85 91 93 100 103 107 109 111 113 116 121 122 122 125 123 120 120 123 122 130 135 137 144 153 158 152 145 156 181 200 202 202 205 202 204 208 210 210 215
56 57 68 81 85 89 93 95 103 107 107 111 110 122 127 130 125 127 124 121 119 127 123 124 124 133 142 147 152 158 163 182 179 192 192 196 202 205 214 206 207 212 211
55 55 61 73 83 88 92 96 103 109 109 108 109 126 131 133 129 127 126 130 125 138 147 140 135 139 140 140 148 159 163 181 185 179 185 190 194 200 208 211 212 220 223
61 57 61 69 76 81 91 101 112 118 120 119 120 122 132 140 133 128 126 134 139 148 160 146 138 146 142 144 150 148 140 172 192 185 178 196 209 211 219 225 233 234 229
60 57 61 69 77 82 86 95 106 117 126 126 131 130 137 144 144 137 137 144 156 157 162 158 153 148 150 161 167 159 144 170 190 189 183 213 224 231 233 236 239 236 232
63 62 63 67 75 77 84 90 93 97 113 125 130 123 138 143 140 142 143 158 171 163 166 167 168 165 171 169 170 176 172 176 201 196 247 240 231 252 258 235 239 239 243
65 64 67 69 72 74 81 84 84 85 87 105 113 113 127 145 141 134 145 167 183 182 175 185 188 187 184 180 178 174 183 207 217 219 228 223 227 248 254 238 244 255 253
62 65 68 69 69 68 62 64 72 77 88 96 102 112 120 134 144 153 160 186 198 198 195 197 195 183 193 196 181 166 178 197 222 248 248 228 228 251 248 242 244 252 253
65 67 67 66 68 65 57 58 63 72 83 82 84 92 106 123 135 153 168 197 217 215 206 208 202 202 204 197 191 200 211 225 236 242 258 245 229 241 250 258 249 253 254
68 69 68 66 64 60 59 65 75 85 90 84 83 86 89 106 129 152 157 142 209 209 203 208 205 203 208 209 216 218 226 244 254 240 241 233 227 232 250 266 257 257 261
68 67 67 64 58 57 63 73 85 93 88 83 84 85 86 93 104 111 127 121 153 164 177 196 195 200 210 208 210 216 225 245 246 231 224 231 236 246 261 265 262 261 267
67 66 66 65 61 60 68 79 86 87 80 79 84 89 84 78 79 83 80 114 126 109 155 184 176 182 199 209 216 228 239 240 243 235 232 236 250 259 271 275 279 269 270
66 63 63 63 61 59 62 71 76 74 74 76 77 81 81 78 74 76 72 86 113 133 158 184 184 195 206 213 221 230 236 241 239 240 245 245 251 259 271 279 286 280 273
65 62 63 62 61 63 62 65 71 69 72 72 71 70 70 71 71 67 65 65 101 165 190 181 195 213 214 219 225 232 232 232 239 237 246 258 262 262 271 280 283 281 275
66 64 63 62 61 62 61 58 66 65 66 64 66 65 62 63 64 62 57 51 64 120 214 220 223 225 229 235 237 239 241 244 251 253 255 262 271 275 277 283 283 275 278
67 64 62 59 58 59 54 56 60 65 63 65 66 59 57 51 45 40 30 18 355 262 253 256 239 221 233 242 249 253 252 245 253 254 259 269 276 281 283 283 285 284 281
69 64 61 60 57 53 51 51 52 55 53 57 55 51 51 39 26 19 12 2 341 282 274 295 245 228 242 244 256 264 258 253 257 254 258 267 274 280 284 286 288 285 284
65 62 58 57 56 52 50 50 53 49 53 55 49 48 41 30 23 16 7 359 20 333 280 292 277 235 246 257 264 263 255 256 267 263 271 272 273 274 281 284 281 278 285
63 60 56 56 56 53 46 44 45 45 49 48 45 40 35 29 28 21 13 4 354 332 300 296 281 262 271 267 267 264 261 266 273 277 276 273 276 275 275 283 282 284 290
63 60 56 57 56 51 46 45 43 41 44 50 49 40 38 33 23 19 10 1 348 329 316 307 286 282 276 277 275 268 271 276 278 283 279 276 281 282 283 285 285 284 291
61 58 52 52 49 48 46 43 38 38 42 45 47 46 35 27 18 10 3 350 343 343 336 311 298 303 290 286 287 283 277 276 281 284 279 280 288 286 281 284 286 288 292
56 54 50 47 45 45 43 38 37 36 35 36 38 35 30 19 9 1 356 344 336 334 332 329 319 315 314 306 297 293 292 287 285 287 287 284 288 288 285 284 284 287 290
51 49 47 44 45 40 36 35 32 29 28 26 29 27 23 15 6 357 351 347 339 335 336 331 323 320 311 308 303 301 300 294 293 289 290 287 286 287 285 282 284 286 289
44 41 40 40 41 38 34 33 31 28 25 23 21 18 13 10 4 358 351 347 342 332 327 329 321 318 310 308 304 303 302 300 295 288 287 288 290 291 291 291 292 291 291
38 34 32 32 32 32 31 27 22 19 22 21 18 14 9 7 2 355 345 342 342 336 330 326 319 312 306 303 302 301 300 298 299 296 293 291 291 290 292 294 293 293 295
Height
5873 5872 5871 5871 5871 5872 5872 5872 5873 5873 5874 5875 5876 5877 5877 5878 5879 5880 5881 5882 5883 5883 5884 5885 5885 5886 5886 5887 5887 5888 5888 5888 5889 5890 5891 5892 5892 5892 5893 5894 5894 5895 5895
5873 5872 5872 5872 5872 5873 5873 5873 5874 5874 5875 5876 5876 5877 5878 5879 5879 5880 5881 5882 5883 5884 5884 5885 5886 5886 5887 5887 5887 5888 5889 5889 5890 5890 5891 5892 5892 5893 5893 5894 5894 5895 5895
5874 5873 5873 5873 5873 5873 5874 5874 5874 5875 5876 5876 5877 5878 5879 5879 5880 5881 5882 5883 5884 5884 5885 5885 5886 5887 5887 5888 5888 5888 5889 5889 5890 5890 5890 5891 5892 5893 5893 5894 5894 5895 5895
5874 5874 5874 5873 5873 5874 5874 5875 5875 5876 5876 5877 5878 5878 5879 5880 5880 5881 5882 5883 5884 5884 5885 5886 5886 5887 5887 5888 5888 5888 5889 5889 5890 5890 5890 5891 5892 5893 5893 5894 5894 5894 5895
5875 5875 5874 5874 5874 5874 5874 5875 5876 5876 5877 5878 5878 5879 5879 5880 5881 5881 5882 5883 5884 5884 5885 5885 5886 5887 5887 5888 5888 5888 5889 5889 5890 5890 5891 5891 5892 5892 5893 5893 5894 5894 5894
5876 5876 5875 5875 5874 5874 5875 5875 5876 5876 5877 5878 5878 5879 5879 5880 5881 5882 5882 5883 5884 5884 5885 5885 5886 5887 5887 5888 5888 5889 5889 5889 5890 5890 5890 5891 5892 5892 5892 5892 5893 5893 5893
5877 5877 5876 5875 5875 5875 5875 5875 5876 5876 5877 5878 5878 5879 5880 5880 5881 5882 5883 5883 5884 5884 5884 5885 5886 5886 5887 5888 5888 5888 5889 5890 5890 5890 5890 5891 5891 5891 5891 5892 5892 5892 5893
5878 5877 5877 5876 5875 5875 5875 5875 5876 5876 5877 5878 5879 5879 5880 5881 5881 5882 5883 5883 5884 5884 5885 5885 5886 5886 5887 5887 5888 5888 5889 5890 5890 5890 5890 5890 5891 5891 5891 5891 5891 5891 5892
5879 5878 5878 5877 5876 5876 5876 5876 5876 5876 5877 5878 5879 5879 5880 5881 5881 5882 5882 5883 5883 5884 5884 5884 5885 5886 5886 5887 5887 5889 5890 5890 5890 5890 5890 5890 5890 5890 5890 5891 5891 5891 5891
5880 5880 5879 5878 5878 5877 5876 5875 5876 5876 5877 5878 5879 5879 5880 5880 5881 5881 5882 5882 5883 5883 5884 5884 5885 5885 5886 5887 5888 5889 5889 5890 5890 5890 5890 5890 5890 5890 5890 5890 5890 5890 5890
5882 5881 5880 5880 5879 5877 5875 5874 5875 5876 5878 5879 5879 5880 5880 5880 5881 5881 5881 5882 5882 5883 5883 5884 5884 5885 5886 5887 5888 5889 5889 5889 5890 5890 5890 5890 5890 5890 5890 5890 5889 5889 5889
5883 5883 5882 5881 5880 5878 5875 5874 5874 5876 5878 5879 5880 5880 5880 5881 5881 5881 5881 5882 5882 5882 5883 5883 5884 5885 5886 5887 5888 5888 5889 5889 5889 5889 5889 5890 5890 5889 5889 5889 5889 5889 5889
5885 5884 5883 5882 5881 5880 5877 5876 5876 5878 5880 5880 5881 5881 5881 5881 5881 5881 5881 5882 5882 5882 5883 5883 5884 5885 5886 5887 5888 5888 5888 5889 5889 5889 5889 5889 5889 5889 5889 5889 5888 5888 5888
5886 5885 5885 5884 5883 5882 5880 5880 5880 5881 5881 5881 5882 5882 5882 5882 5882 5882 5882 5882 5883 5883 5883 5883 5884 5885 5885 5886 5887 5888 5888 5889 5889 5889 5889 5889 5888 5888 5888 5888 5887 5887 5887
5888 5887 5886 5885 5884 5884 5883 5882 5882 5883 5882 5883 5883 5883 5883 5883 5883 5883 5883 5883 5883 5883 5883 5884 5884 5884 5885 5886 5886 5887 5888 5888 5888 5888 5888 5888 5888 5887 5887 5887 5886 5886 5885
5890 5889 5888 5887 5886 5885 5885 5884 5884 5883 5883 5883 5883 5883 5883 5883 5883 5883 5883 5883 5883 5884 5883 5883 5884 5884 5884 5885 5885 5886 5886 5887 5887 5887 5887 5887 5887 5886 5886 5886 5885 5884 5884
5891 5890 5889 5889 5888 5887 5886 5885 5885 5884 5884 5884 5884 5884 5884 5884 5884 5884 5883 5883 5883 5883 5883 5883 5883 5883 5884 5884 5884 5885 5885 5886 5886 5886 5886 5886 5886 5885 5885 5884 5884 5883 5883
5893 5892 5891 5890 5890 5889 5888 5887 5886 5886 5885 5885 5885 5884 5884 5884 5884 5884 5883 5883 5883 5883 5883 5883 5883 5883 5883 5883 5884 5884 5884 5884 5884 5884 5884 5884 5884 5884 5883 5883 5882 5881 5881
5895 5894 5893 5892 5891 5891 5890 5889 5888 5887 5886 5885 5885 5885 5885 5884 5884 5883 5883 5882 5882 5882 5882 5882 5882 5882 5882 5883 5883 5883 5883 5883 5883 5883 5883 5883 5882 5882 5881 5881 5880 5880 5879
5896 5895 5895 5894 5893 5892 5891 5890 5889 5888 5887 5886 5885 5885 5885 5885 5884 5884 5883 5882 5882 5882 5882 5882 5882 5881 5882 5881 5881 5881 5881 5881 5882 5881 5881 5881 5881 5880 5879 5879 5878 5878 5878
5898 5897 5896 5895 5895 5893 5893 5892 5891 5889 5888 5887 5886 5886 5886 5885 5884 5884 5883 5882 5882 5881 5881 5881 5880 5880 5880 5880 5880 5880 5880 5880 5880 5879 5879 5879 5878 5878 5877 5877 5877 5876 5876
5899 5899 5898 5897 5896 5895 5894 5893 5892 5891 5889 5888 5887 5887 5886 5885 5884 5884 5883 5882 5881 5881 5880 5880 5879 5879 5879 5878 5878 5877 5878 5878 5877 5877 5877 5877 5876 5876 5875 5875 5874 5874 5873
5901 5900 5899 5898 5897 5896 5895 5894 5893 5892 5891 5889 5888 5887 5886 5885 5884 5883 5882 5881 5880 5880 5880 5879 5878 5878 5877 5877 5876 5876 5876 5876 5875 5875 5874 5874 5874 5873 5872 5872 5871 5870 5870
5902 5901 5900 5899 5898 5897 5896 5895 5894 5893 5892 5890 5889 5888 5887 5886 5884 5883 5882 5881 5880 5879 5879 5878 5877 5876 5876 5875 5875 5874 5874 5873 5873 5873 5872 5871 5870 5870 5869 5869 5868 5867 5867
5904 5902 5901 5900 5899 5898 5897 5896 5895 5894 5892 5891 5890 5889 5887 5886 5884 5883 5881 5880 5879 5879 5878 5877 5876 5875 5875 5874 5873 5873 5872 5871 5870 5870 5869 5869 5868 5867 5866 5865 5864 5864 5863
5905 5904 5903 5901 5900 5899 5898 5897 5896 5894 5893 5891 5890 5889 5887 5886 5884 5882 5880 5879 5878 5877 5876 5876 5875 5874 5873 5872 5871 5870 5869 5869 5867 5867 5866 5866 5865 5864 5863 5862 5861 5860 5860